Location: Burtsch�tz
(51.0528°N, 12.1764°E)
Time: 01:52:17
(UTC+00:00)

Cosmos 1400 Rocket - Pass Details

Date: 29 October 2020
Orbit: 521 x 568 km, 81.2° (Epoch: 23 November)

Event Time Altitude Azimuth Distance (km) Brightness Sun altitude
Rises 17:07:04 0° 188° (S) 2,751 6.6 -12.5°
Reaches altitude 10° 17:09:14 10° 188° (S) 1,855 5.7 -12.9°
Maximum altitude 17:13:20 82° 102° (ESE) 573 2.8 -13.5°
Drops below altitude 10° 17:17:25 10° 14° (NNE) 1,848 5.3 -14.2°
Sets 17:19:35 0° 14° (NNE) 2,740 6.2 -14.5°
